Theta_e
300 300 300 300 299 298 297 297 297 297 298 298 298 298 297 297 297 297 297 297 297 297 297 297 297 297 298 298 298 298 300 299 298 299 299 299 298 299 298 299 299 299 299 299 298 298 300 302 304 305 310 312 310 310 310 309 310 312 313 312 313 313 314 315 315 316 316 315 317 317 317 318 318 319 319 320 321 322 321 322 322 322 322 322 323 324 324 325
300 300 298 297 297 297 297 297 297 297 298 298 298 297 297 297 297 297 297 297 297 297 297 298 298 298 298 298 298 299 300 299 299 299 299 299 298 298 298 298 298 298 299 298 298 299 302 306 307 308 312 313 312 310 310 310 311 312 312 312 312 313 314 315 315 316 315 314 316 317 316 316 317 318 318 319 320 321 320 321 322 322 323 322 323 323 323 323
300 299 297 297 296 297 297 297 297 297 297 298 298 297 297 297 297 297 298 298 297 298 298 298 298 298 298 299 299 299 300 300 300 300 299 299 299 298 298 297 297 297 298 298 299 301 304 307 308 310 312 313 313 311 311 311 311 312 312 311 311 312 313 314 314 314 313 313 314 316 315 316 317 317 317 318 319 320 319 320 321 321 322 322 321 321 322 322
299 298 297 297 296 296 297 297 297 297 297 297 298 298 298 297 297 297 297 298 298 298 298 298 299 299 299 299 299 299 301 302 301 299 299 299 299 299 298 297 297 297 297 298 300 302 304 307 308 310 312 312 314 312 311 313 312 313 312 310 311 312 311 313 314 313 313 313 314 314 314 315 316 315 317 318 317 317 319 320 320 320 320 320 319 319 320 320
299 297 296 297 296 296 297 297 297 297 297 297 297 298 298 297 297 297 297 298 298 298 298 299 299 299 299 299 299 300 302 303 300 299 299 299 299 299 299 298 297 297 297 299 300 302 305 307 308 310 311 311 313 312 312 314 313 313 312 310 312 313 313 314 315 314 313 313 313 314 313 313 314 315 316 317 316 316 318 319 318 319 319 319 318 318 318 318
299 296 296 296 296 296 296 297 297 297 297 297 297 298 298 297 297 298 297 298 298 298 298 299 299 299 299 299 299 299 301 301 299 299 299 299 299 299 299 298 297 297 297 298 299 303 306 306 307 310 311 310 312 312 313 314 313 312 312 313 313 314 314 314 314 314 313 313 313 314 313 313 313 314 315 315 316 316 317 317 317 318 318 318 318 318 318 318
298 296 296 296 296 296 296 297 296 297 297 297 297 298 297 297 298 298 298 298 299 299 299 299 299 299 299 299 300 299 300 300 299 299 298 299 299 299 300 299 298 297 297 298 299 303 306 306 307 309 310 310 311 312 313 314 313 312 312 313 314 314 314 314 314 313 313 313 313 313 312 313 312 313 313 313 314 315 316 316 316 317 317 316 317 317 318 318
298 296 296 296 296 296 296 296 296 297 297 297 297 298 298 297 298 298 298 299 299 299 299 299 299 299 299 299 300 300 300 300 299 298 298 299 299 299 300 300 299 298 298 298 299 302 305 306 307 307 309 309 310 311 312 312 312 312 312 313 314 314 314 313 313 312 312 313 312 313 312 313 312 312 312 312 313 313 313 313 314 314 314 315 315 315 316 316
297 296 296 296 296 296 296 296 296 297 297 297 297 297 298 298 298 298 298 299 299 299 299 299 299 299 299 299 300 300 300 299 299 298 298 299 299 299 300 300 300 299 298 298 300 301 304 306 306 307 308 308 309 311 312 311 311 312 312 313 313 313 313 312 312 312 312 312 312 312 312 312 313 312 312 312 312 312 313 313 313 314 314 314 314 315 315 316
296 296 296 296 296 296 296 296 296 297 297 298 297 298 298 298 298 298 298 299 299 299 299 299 299 299 299 299 300 300 299 299 299 298 298 299 299 300 300 300 300 300 300 299 300 301 303 304 305 306 307 307 309 310 310 310 311 312 312 312 312 312 312 311 311 311 311 312 312 312 311 311 312 311 311 312 312 312 313 313 313 314 315 316 316 316 317 317
296 296 296 296 296 296 296 296 296 297 297 297 297 297 298 298 298 298 298 298 299 299 299 299 299 299 299 299 300 300 299 299 299 298 298 298 299 300 300 301 300 300 300 300 300 301 301 302 303 305 306 307 308 308 309 310 311 311 311 310 311 311 311 310 310 310 311 311 312 311 311 312 312 311 311 312 312 311 312 313 313 313 314 315 316 316 316 316
295 295 296 296 296 296 296 296 296 297 297 297 297 297 298 298 298 298 298 298 299 299 299 300 299 299 299 299 299 299 299 299 298 298 298 298 299 300 300 301 301 301 300 301 302 302 302 302 302 304 306 307 307 306 308 309 309 309 309 308 308 309 309 309 309 309 310 310 310 310 310 310 312 311 310 311 310 310 311 312 312 313 313 314 314 314 314 315
295 295 296 296 296 296 296 296 296 297 297 297 297 297 298 298 298 298 298 299 299 299 299 300 299 298 299 300 299 298 298 298 298 298 298 299 299 300 300 301 301 301 300 301 303 304 304 303 302 304 306 306 306 306 307 308 308 307 306 306 306 306 308 308 308 308 309 310 309 309 309 309 310 310 309 309 309 309 310 311 311 311 311 312 312 312 312 313
296 295 295 296 295 295 296 296 296 297 297 297 297 298 298 298 298 298 298 299 299 299 298 300 300 298 299 300 298 298 298 298 298 299 298 299 299 300 300 300 301 301 301 302 304 304 305 305 303 304 305 306 307 307 306 306 307 306 304 305 305 305 307 308 308 308 308 309 309 308 310 310 310 310 310 309 309 309 309 310 310 310 310 310 310 311 311 312
296 295 295 295 295 295 296 295 296 296 297 297 297 298 298 298 298 298 299 299 299 299 298 300 300 299 299 299 298 298 298 298 299 299 299 299 300 300 300 300 300 301 302 303 303 304 305 306 306 306 307 307 307 306 305 305 305 305 304 304 306 306 306 307 308 307 307 308 309 308 310 311 310 310 310 309 309 309 309 310 310 310 310 309 309 309 310 310
295 295 295 295 295 295 296 296 296 296 297 297 298 298 298 298 298 298 299 299 299 299 298 300 300 300 300 299 298 299 298 298 299 299 299 299 300 300 299 299 300 301 302 302 302 303 305 307 307 307 307 307 306 305 304 304 305 305 305 305 306 306 306 306 307 308 307 307 307 308 309 309 309 310 309 309 309 309 309 310 310 310 310 309 309 308 308 309
295 295 295 295 295 295 296 296 296 296 297 297 298 298 298 298 299 299 299 299 300 299 298 299 300 300 300 298 298 299 298 298 299 299 299 299 300 300 299 299 300 301 302 302 302 303 304 306 307 306 306 306 305 304 304 305 305 305 304 304 305 305 306 306 306 307 307 306 306 307 307 307 308 309 309 309 309 309 309 309 309 309 309 309 309 307 307 307
295 295 295 295 295 295 296 296 295 296 297 297 298 298 298 298 298 298 299 299 299 299 299 298 299 300 299 298 298 298 298 298 298 298 298 299 300 300 299 299 300 301 303 303 303 304 305 306 305 304 305 304 304 304 305 305 305 304 304 304 304 304 305 304 305 306 306 305 306 306 307 307 308 308 309 309 309 309 309 309 309 309 309 309 309 308 307 307
294 295 294 294 294 295 296 295 295 296 296 297 297 298 298 298 298 298 298 299 299 300 300 299 299 299 299 298 298 298 298 298 298 298 298 299 300 300 299 299 300 301 303 304 303 304 305 305 303 303 303 304 304 304 305 305 305 305 305 305 305 304 304 304 304 305 306 306 306 307 307 308 308 308 308 308 308 308 308 309 308 309 309 309 309 309 309 308
294 294 294 294 294 295 295 295 295 296 296 297 297 298 298 298 299 299 298 298 298 299 299 298 298 298 298 298 297 298 298 298 298 298 298 299 299 300 299 299 301 302 303 303 303 304 305 304 302 302 303 303 304 304 304 305 305 305 305 305 305 305 305 305 305 305 307 307 307 307 307 307 307 306 307 307 307 308 308 308 309 309 309 310 310 310 309 308
294 294 294 294 294 295 295 295 295 296 296 297 297 298 298 298 300 300 298 297 298 298 298 298 298 298 298 297 297 298 298 298 298 298 298 299 299 300 300 301 302 302 302 303 303 304 304 303 302 302 303 303 304 304 304 305 305 305 305 305 306 305 305 305 305 306 307 307 306 307 306 306 306 306 307 308 308 308 309 309 309 310 310 310 309 309 308 307
293 294 294 294 294 295 295 295 295 296 296 297 298 298 298 298 299 299 299 298 297 298 298 298 297 297 297 297 297 298 298 298 299 298 298 299 300 300 301 302 302 301 302 303 303 303 303 302 301 302 303 303 303 303 303 304 305 305 305 306 306 306 305 305 305 306 306 306 306 306 306 307 308 308 308 309 309 309 310 309 309 309 309 309 308 307 307 307
293 293 294 294 294 295 295 295 295 296 296 296 297 298 298 298 298 298 298 298 297 297 298 298 297 297 297 297 297 298 298 298 298 298 298 299 300 300 301 302 301 301 301 302 302 302 302 301 301 302 303 302 302 302 302 303 304 304 304 306 306 306 305 306 306 306 306 306 306 307 308 308 308 307 308 309 309 309 309 309 309 308 307 307 306 305 305 305
293 294 294 294 294 295 295 295 295 296 296 296 297 297 298 297 297 298 297 296 297 297 297 297 297 297 297 297 297 298 298 297 298 298 297 298 300 301 301 301 301 301 301 302 303 302 301 300 301 302 301 301 301 301 301 302 303 304 304 305 305 305 305 305 305 304 305 306 307 307 307 308 308 306 307 308 308 309 309 309 307 306 305 304 304 303 303 303
293 294 294 294 294 295 296 295 295 296 296 296 297 297 297 297 297 298 297 297 297 296 297 298 297 297 297 297 297 297 298 298 297 297 297 298 300 301 300 300 300 300 299 302 303 301 300 300 301 301 301 300 301 301 300 301 303 304 304 304 304 304 304 304 304 304 305 306 308 307 306 307 308 306 307 308 308 309 308 306 305 304 303 303 303 302 302 302
294 294 294 294 294 295 295 295 295 295 296 296 296 297 297 297 297 298 297 298 297 296 297 298 297 297 297 297 297 298 299 298 297 297 297 298 299 300 300 300 300 299 299 301 302 301 300 300 301 301 301 300 300 300 300 300 302 303 303 303 303 303 304 304 304 304 305 306 307 307 305 306 307 307 308 307 307 308 306 304 303 303 302 302 302 302 302 302
294 294 293 294 294 294 295 295 295 295 296 296 296 297 296 296 298 298 298 299 297 296 297 297 297 297 297 296 297 298 298 297 298 298 297 298 298 299 299 299 299 299 299 300 301 300 299 300 301 301 301 299 299 299 299 300 302 302 302 302 302 303 304 305 305 304 305 306 306 306 306 306 307 308 307 307 308 307 304 303 303 302 301 301 301 301 301 301
294 293 293 294 294 294 294 295 296 295 295 295 296 296 296 297 297 298 300 300 296 295 297 297 297 297 297 296 296 297 297 296 298 298 297 298 298 299 300 298 298 298 298 300 300 298 299 299 300 301 300 298 298 298 298 300 302 302 301 301 302 303 304 304 305 305 305 306 306 306 306 307 307 308 307 307 308 306 305 303 302 301 300 300 300 300 300 300
293 293 293 294 294 295 295 295 296 295 295 295 295 295 296 297 296 297 300 299 295 295 296 296 297 297 296 297 296 296 296 296 297 297 297 297 298 299 299 298 298 299 298 300 299 298 299 298 299 301 300 298 298 298 298 299 301 301 300 302 303 304 304 304 304 305 306 307 306 305 305 307 307 308 308 307 307 305 304 303 301 300 300 300 300 299 299 299
293 293 293 294 295 295 295 295 295 295 295 295 295 295 296 296 297 299 300 297 295 295 296 296 297 297 296 297 297 297 297 296 296 296 297 298 298 299 298 297 298 299 298 299 299 298 298 298 299 300 299 298 298 299 299 299 301 301 301 303 305 305 305 305 305 306 306 306 306 304 304 306 307 308 307 306 305 303 302 301 299 299 299 299 299 299 299 299
293 293 294 294 295 295 295 295 295 295 295 294 294 295 296 296 298 301 299 295 294 296 296 296 297 297 296 296 296 296 297 297 296 296 297 298 298 298 298 298 298 298 298 299 298 298 298 298 298 299 299 298 298 299 300 300 301 301 301 303 303 303 304 304 305 305 304 304 304 303 303 306 307 307 305 304 303 301 301 299 298 298 298 299 299 299 299 299
293 293 294 294 295 295 295 295 294 295 294 293 294 294 296 299 299 297 295 294 294 295 296 296 297 297 296 295 296 295 295 296 297 296 296 297 297 297 297 297 297 297 297 297 297 298 298 297 297 298 299 298 298 299 300 300 300 300 301 302 301 301 301 301 302 302 302 302 302 302 303 306 307 306 305 304 302 301 300 299 298 298 298 298 298 299 299 299
293 293 294 294 295 295 295 294 294 294 293 294 294 294 298 301 298 294 294 295 294 294 295 296 297 296 295 295 296 294 295 296 296 296 296 296 297 297 297 297 297 296 296 296 296 297 298 297 297 298 298 298 298 298 298 299 299 299 300 301 300 300 300 300 300 300 300 301 301 301 303 305 306 306 306 303 301 301 300 298 297 297 297 298 298 298 298 298
292 293 294 294 295 295 294 294 294 293 294 294 294 297 302 301 296 293 294 294 293 293 295 296 296 295 294 294 294 294 295 296 295 296 296 296 297 297 297 297 297 296 296 296 296 296 297 296 297 297 298 298 297 296 297 297 298 299 299 300 300 300 299 299 298 299 300 301 301 302 304 305 304 305 306 302 300 300 298 297 297 297 297 298 298 298 298 298
293 294 294 295 296 295 293 294 294 294 294 295 297 300 301 297 292 293 295 295 294 295 296 295 295 295 295 294 293 294 295 296 295 295 295 295 296 297 297 296 296 296 296 295 296 296 296 296 297 298 298 297 296 296 297 298 299 299 299 300 300 299 299 298 298 300 300 300 301 302 304 304 302 302 305 303 301 299 297 297 297 297 297 298 298 298 298 298
293 294 295 295 295 294 294 294 294 295 295 297 301 299 296 294 292 293 296 297 296 297 296 295 295 296 295 294 293 294 295 295 295 295 295 294 295 296 296 296 296 296 296 295 295 296 295 296 297 297 298 297 295 296 297 298 298 299 298 298 298 298 299 298 298 299 300 300 301 301 300 300 299 301 304 303 300 298 297 297 297 297 297 297 298 298 297 298
292 294 295 295 295 294 294 294 294 296 295 298 302 297 292 293 292 293 296 297 296 296 295 294 295 295 295 295 294 294 295 295 295 295 295 294 294 296 296 296 296 295 295 295 295 296 295 296 296 297 298 297 295 296 297 297 297 298 298 298 298 298 298 297 297 298 298 298 299 298 297 298 297 299 302 300 298 297 296 296 297 297 297 297 298 298 297 297
292 294 295 295 295 294 294 295 295 296 296 299 300 295 292 293 293 292 295 296 296 296 295 294 294 295 295 295 295 294 295 295 295 295 295 294 294 295 295 295 295 295 295 296 296 296 295 295 296 297 296 296 295 296 298 298 297 297 298 298 298 298 296 296 297 297 298 298 297 297 296 296 296 298 299 298 297 297 296 296 296 297 297 297 297 297 297 297
292 294 295 295 294 294 295 295 295 295 298 300 298 295 293 294 294 294 295 296 296 296 295 294 294 295 295 294 294 295 295 295 295 295 295 294 295 295 294 294 294 294 294 295 295 295 295 295 296 296 295 295 295 296 296 297 297 298 298 297 298 297 295 295 296 297 298 297 296 296 295 296 297 297 297 297 297 296 296 296 296 296 297 297 297 297 297 297
292 293 294 295 294 294 295 295 295 296 297 296 294 293 293 294 296 295 296 296 296 295 296 295 294 294 295 294 294 294 295 295 294 295 296 295 295 295 294 293 293 293 293 294 295 295 295 295 295 295 295 295 295 295 295 295 297 298 298 297 296 295 295 295 296 297 297 296 295 295 295 296 297 297 296 297 296 296 296 296 296 296 297 297 297 297 297 297
293 294 294 295 294 295 295 295 295 293 293 292 291 291 292 295 297 296 296 296 295 295 296 296 295 294 293 294 294 295 294 295 295 295 295 295 295 295 293 292 292 292 292 293 294 294 294 294 294 294 293 294 294 295 295 295 296 297 297 297 295 294 295 295 295 296 296 295 295 295 295 296 296 297 296 296 296 296 296 296 296 296 296 297 296 296 297 297
293 294 294 295 295 295 295 295 292 290 292 293 292 293 294 295 296 296 295 295 294 294 295 295 296 295 294 294 295 295 295 295 295 295 296 295 295 295 293 291 291 291 292 292 292 294 294 293 293 293 293 294 294 295 295 295 296 297 296 296 295 294 295 295 294 295 296 296 295 295 295 296 296 297 297 296 297 297 296 296 296 296 296 296 296 296 296 296
293 294 294 295 295 294 294 295 292 291 292 292 291 292 293 293 294 295 294 294 292 292 293 295 294 294 295 295 295 296 295 294 295 296 296 295 295 295 293 291 291 291 291 292 293 294 293 291 292 293 293 294 294 294 294 293 294 295 295 295 295 294 295 294 294 295 295 295 295 296 296 297 296 297 297 297 297 297 296 296 296 296 296 295 295 295 296 296
293 293 294 294 295 295 295 295 294 293 292 292 291 292 292 292 293 294 294 293 292 291 293 294 294 294 295 295 295 296 295 294 294 294 294 293 293 294 292 291 291 291 291 291 292 294 293 292 292 293 294 294 293 294 294 293 294 294 294 294 294 294 294 294 294 294 295 295 295 296 296 296 296 297 297 297 296 296 296 296 296 296 295 294 294 295 296 296
293 293 294 294 294 295 294 293 293 293 292 292 292 292 293 292 293 293 292 292 292 291 292 294 294 295 295 294 294 294 294 293 293 293 292 291 292 292 291 291 291 291 291 291 293 294 294 293 293 293 293 294 294 294 294 294 294 294 293 293 293 293 293 292 293 293 294 295 296 296 296 296 296 296 296 296 295 295 296 296 295 295 294 293 293 294 295 296
293 294 294 293 293 293 292 291 292 293 292 292 291 291 291 292 291 291 292 293 292 292 292 294 294 294 293 292 292 292 291 291 291 291 291 290 290 291 291 291 290 290 291 292 293 294 293 292 293 293 293 293 293 293 293 293 293 293 292 292 292 292 292 292 292 293 294 294 294 295 295 294 294 294 294 295 294 294 295 295 294 293 293 293 293 293 294 295
293 294 293 292 292 292 292 291 291 291 291 291 290 289 290 291 290 290 291 292 292 292 293 294 294 294 293 291 290 290 290 290 290 290 290 290 290 290 291 290 290 290 292 292 292 292 291 291 291 291 292 292 292 292 292 292 292 291 291 291 291 291 291 291 291 292 293 293 292 293 293 293 293 293 294 294 294 294 295 293 292 292 293 292 292 292 294 295
293 293 291 291 292 291 291 291 290 289 289 289 289 289 290 290 290 290 291 291 292 292 293 293 292 292 292 291 290 290 289 290 289 289 290 290 289 290 290 290 290 290 291 291 291 290 290 290 290 290 290 291 291 291 291 291 291 291 291 291 291 291 291 291 291 291 291 291 291 292 292 292 292 293 293 294 294 294 293 292 292 292 292 292 291 292 293 294
293 292 291 291 291 290 290 290 290 290 289 290 290 289 291 291 290 290 291 291 291 291 292 292 291 291 291 290 290 290 290 290 290 289 289 290 290 290 290 291 290 290 290 290 290 290 290 290 290 290 290 290 290 290 290 290 290 290 290 290 290 290 290 291 291 291 291 291 291 291 292 292 292 293 293 294 294 293 292 291 291 291 291 291 291 291 292 294
293 292 292 291 291 290 290 289 290 290 290 290 290 289 290 291 290 290 291 291 291 291 291 291 291 291 291 290 290 290 290 291 291 290 290 290 290 290 290 291 291 290 290 290 290 289 289 290 290 290 289 289 289 289 290 290 290 290 290 290 290 290 290 290 290 291 291 291 291 291 291 292 293 294 294 294 293 291 291 291 291 291 291 291 291 291 292 293
293 292 292 292 291 290 290 289 289 290 291 290 289 289 289 291 291 291 291 291 291 291 291 291 291 291 291 290 289 290 291 291 291 291 291 290 291 291 291 291 291 290 290 290 290 289 289 290 290 289 289 289 289 289 289 289 289 289 289 290 290 291 290 291 291 291 291 291 292 292 292 293 294 295 294 293 293 292 291 291 291 291 290 290 290 290 291 292
293 293 292 292 292 290 290 289 288 290 291 291 290 289 290 291 291 291 291 291 290 291 291 291 291 291 290 290 290 291 291 291 291 291 291 291 291 291 291 291 291 291 290 290 290 290 289 290 290 289 290 290 289 289 289 289 289 291 292 292 291 291 291 291 291 292 292 292 292 292 293 294 294 294 293 293 293 292 291 290 290 290 290 290 290 290 291 291
Wind_Speed
16 16 17 18 19 19 19 19 18 17 17 18 20 21 23 23 23 24 23 23 21 21 21 20 19 18 18 18 16 11 10 18 25 30 33 30 26 24 23 23 21 21 21 22 24 24 23 21 20 18 15 11 7 6 4 3 3 5 5 7 8 8 7 5 7 4 4 5 4 4 4 5 4 2 2 4 4 4 6 8 8 10 14 16 15 14 14 13
16 17 18 19 18 18 18 18 18 18 19 19 20 21 22 22 22 22 22 22 21 21 20 19 19 17 17 18 17 11 7 16 29 33 33 28 26 27 24 23 21 20 21 21 23 24 22 21 21 20 16 11 8 6 3 3 2 5 4 7 8 5 4 2 4 7 7 8 11 8 7 7 5 5 6 5 5 4 6 6 5 7 9 12 14 16 18 18
16 17 18 18 17 17 17 18 18 18 18 18 19 20 20 20 20 21 20 20 20 20 19 18 19 18 17 17 20 14 4 16 33 34 32 29 28 28 25 24 21 20 20 22 23 21 18 17 17 16 13 8 7 7 5 4 3 3 3 8 4 5 5 7 11 10 10 12 13 11 9 9 7 7 8 7 8 8 9 8 5 5 4 5 9 11 14 15
16 17 17 17 16 17 17 17 17 17 17 17 18 19 18 19 19 19 19 19 19 19 17 17 19 19 17 17 22 16 3 13 29 31 29 29 29 28 26 24 21 20 19 21 21 18 16 13 12 11 9 5 6 7 4 5 5 3 3 5 4 9 5 6 13 11 12 13 11 13 12 10 9 8 8 8 9 9 11 9 6 7 5 6 10 13 13 14
16 16 16 16 16 16 17 17 17 18 18 17 18 17 17 17 17 18 18 18 18 17 16 17 19 20 17 17 23 20 7 5 20 30 29 28 29 28 26 23 22 20 20 20 19 16 14 12 10 7 6 4 5 5 3 7 7 5 3 2 7 10 6 10 15 13 15 14 11 12 11 11 13 11 9 9 9 9 10 8 7 9 9 10 14 16 16 16
15 15 15 15 15 16 16 16 17 18 18 17 16 16 16 16 16 17 16 17 17 15 15 16 19 21 17 15 20 26 18 5 19 30 28 28 28 28 26 23 22 19 19 18 17 16 14 13 10 7 6 4 4 3 4 8 6 4 3 3 7 9 9 14 18 17 16 14 13 12 10 13 15 13 10 12 14 14 15 16 16 16 15 15 15 16 17 17
15 14 14 15 15 15 16 16 16 17 17 15 14 15 15 14 15 16 15 16 15 14 14 15 19 21 18 13 16 29 27 13 23 29 27 28 26 27 26 23 22 18 18 18 18 17 14 13 11 8 6 3 3 4 7 10 6 5 4 5 9 10 10 15 19 20 17 14 15 13 11 12 13 12 11 13 16 17 21 22 22 23 22 22 20 19 20 20
14 13 14 15 15 15 16 16 16 16 16 14 13 13 13 14 15 15 14 15 15 14 13 15 18 21 20 16 17 28 28 19 25 29 27 27 24 26 26 24 22 18 18 18 18 17 12 12 11 9 5 3 6 6 8 10 4 2 4 9 11 12 13 15 17 18 18 16 14 13 13 12 13 14 16 21 23 21 24 27 26 27 28 27 26 27 26 26
13 13 14 15 15 16 16 15 15 15 15 14 12 11 12 14 13 13 14 15 15 13 12 14 17 21 21 20 23 24 19 19 24 28 28 25 24 24 23 24 23 19 18 16 17 15 12 10 10 9 6 6 6 6 8 6 2 4 8 12 14 15 15 14 15 16 18 16 12 13 14 15 15 14 14 18 21 19 18 22 23 25 26 26 26 27 26 27
12 12 13 15 16 16 16 15 15 14 14 14 11 10 12 12 12 12 13 15 16 13 12 13 16 20 23 26 27 17 13 18 24 27 27 24 23 23 23 23 23 20 17 16 16 14 12 9 8 9 7 6 4 5 7 5 5 10 12 14 15 16 14 14 14 14 15 14 12 13 15 16 12 8 8 8 12 16 15 17 19 20 20 19 19 19 20 22
12 13 13 14 15 15 16 15 15 14 14 14 11 9 11 11 10 10 12 14 16 15 11 11 15 18 24 31 28 15 15 19 23 28 26 23 23 25 26 24 22 20 17 16 15 13 11 8 9 8 5 5 7 8 6 5 10 12 13 14 14 13 13 11 10 10 9 6 9 11 14 14 9 6 8 8 13 16 15 16 18 19 18 17 18 20 22 24
12 13 13 14 15 16 16 15 15 14 15 14 10 9 11 10 9 9 11 13 16 17 12 10 14 18 23 30 26 17 16 20 24 27 25 23 22 24 25 24 21 19 16 14 14 14 12 9 9 6 5 7 8 8 5 7 12 13 12 11 11 11 9 5 5 10 5 4 15 12 11 12 10 5 4 7 13 17 14 11 11 14 14 14 15 18 21 22
12 12 13 14 15 16 16 15 15 14 14 12 9 9 10 10 10 9 9 11 14 18 15 8 10 19 21 19 20 19 18 23 26 26 26 25 22 22 23 22 21 18 14 12 12 14 12 9 8 6 6 7 6 7 9 11 11 11 10 7 9 9 3 5 8 13 5 6 20 12 7 4 5 7 12 12 15 19 16 12 11 12 13 15 16 18 17 16
11 12 13 13 15 16 16 16 15 14 13 10 8 9 11 11 10 10 9 9 11 17 20 9 5 18 20 13 18 21 20 25 28 29 30 28 24 24 24 23 21 17 12 9 11 13 12 9 7 7 6 5 7 9 10 9 6 7 8 6 4 5 2 8 10 14 9 9 21 12 6 1 5 6 11 15 17 20 19 15 13 13 15 19 19 19 20 18
11 11 12 13 14 15 16 16 16 14 11 8 7 9 11 11 11 11 9 7 8 15 21 10 6 14 17 14 17 19 24 30 31 31 30 29 27 28 27 26 23 14 8 10 11 13 13 10 7 8 8 6 8 8 7 4 2 4 5 3 2 3 5 7 8 12 10 12 17 10 5 4 3 7 15 19 18 20 22 20 18 16 17 20 21 21 22 23
11 11 12 13 14 15 16 17 16 14 10 6 7 10 11 12 14 13 10 7 5 14 23 14 8 12 14 14 19 22 30 33 31 30 30 28 25 26 27 27 25 14 7 11 12 13 13 11 8 8 10 9 7 7 5 2 2 4 4 3 4 5 6 7 6 8 10 13 13 8 5 6 8 14 21 20 19 21 22 24 24 20 18 18 22 26 26 25
10 10 11 13 14 15 16 17 17 15 11 6 6 10 12 15 16 13 11 9 4 10 24 21 7 8 13 20 23 25 28 29 31 32 30 27 21 24 26 27 27 17 9 13 17 16 13 11 8 6 9 10 9 8 5 4 5 5 5 4 5 6 7 7 7 8 12 13 12 11 9 9 9 15 22 20 17 19 20 22 25 23 22 18 19 25 27 26
11 10 11 12 14 15 16 17 17 15 14 8 6 7 10 14 17 18 18 16 12 10 18 26 16 6 8 24 26 23 22 25 32 34 33 28 20 23 26 25 28 23 12 11 18 17 11 10 10 6 8 10 9 9 6 7 8 7 7 6 6 6 7 8 8 9 13 13 12 13 12 12 11 13 20 22 19 18 18 21 23 21 21 18 15 18 22 25
12 11 11 12 13 15 16 18 18 17 18 12 6 5 5 9 15 23 28 29 26 15 8 20 22 6 5 21 26 22 20 25 33 36 35 30 21 21 26 25 26 27 17 7 12 15 8 8 11 9 9 10 10 9 7 8 8 9 10 8 9 9 7 8 9 10 12 11 10 10 10 12 14 14 19 24 23 19 18 20 22 21 19 17 14 12 14 21
12 10 10 11 12 14 15 18 19 19 21 16 5 5 5 5 6 14 26 32 29 19 11 16 21 13 10 19 26 24 21 25 33 39 36 31 24 20 28 27 20 21 17 7 7 10 7 8 11 11 11 13 13 10 8 8 8 9 9 8 9 9 9 10 11 10 9 8 7 8 11 13 15 15 16 22 23 18 16 17 18 20 20 18 17 15 13 17
11 10 10 10 11 13 14 17 19 20 21 16 5 8 11 9 4 5 14 21 21 19 18 19 22 21 18 21 26 24 23 27 35 41 36 31 27 18 23 25 14 12 14 10 4 2 7 11 12 13 13 13 12 10 9 8 8 8 7 8 8 7 8 10 9 8 7 7 7 9 12 14 14 14 15 17 16 14 13 13 14 17 19 19 20 21 19 18
11 10 9 9 10 12 13 15 18 18 16 13 10 15 18 13 9 6 6 10 15 19 18 21 25 26 23 23 23 21 25 28 31 40 37 31 29 18 15 17 10 8 12 10 3 3 9 12 14 16 13 11 8 9 10 8 7 7 6 7 6 6 7 6 5 8 7 6 7 10 11 12 12 10 11 10 8 10 10 10 11 12 15 17 19 20 21 21
10 9 8 8 9 11 12 14 16 15 13 13 16 19 17 13 9 8 7 6 9 17 17 20 25 28 26 24 22 18 21 21 20 32 37 31 26 18 12 12 9 8 10 10 8 8 8 9 14 15 12 11 9 12 13 8 5 6 6 6 5 8 8 5 7 12 12 8 9 11 10 8 5 3 4 5 4 6 8 9 9 11 14 15 17 19 21 22
9 9 8 8 9 9 9 12 13 12 14 16 17 17 14 12 8 7 6 4 4 12 16 15 20 26 26 22 21 14 14 18 18 27 34 29 23 15 10 10 8 8 10 8 7 9 9 8 13 13 11 12 10 12 15 9 6 7 6 6 7 9 10 8 9 13 14 9 7 9 9 2 3 7 6 5 4 3 5 10 15 17 17 17 20 22 23 22
9 8 8 8 8 9 7 9 11 11 14 14 15 14 11 10 7 5 4 3 2 9 14 12 14 22 24 22 21 10 6 16 21 24 30 27 20 11 7 8 7 8 10 8 4 7 9 9 12 12 11 13 11 10 14 10 7 6 4 3 8 11 12 12 11 11 10 3 1 5 7 2 5 10 6 4 5 4 10 16 18 18 19 21 22 23 22 24
10 9 9 8 8 8 7 8 11 10 10 12 13 12 9 9 5 5 3 2 2 7 12 12 11 17 22 22 22 8 2 11 17 23 29 23 16 11 7 7 5 7 9 6 2 3 5 9 10 11 11 13 12 9 12 11 6 6 5 5 10 11 11 12 10 7 5 5 4 5 4 2 5 7 4 4 7 7 14 15 15 19 22 23 23 23 23 24
10 10 9 9 8 8 6 7 9 9 9 11 11 10 9 8 4 5 2 1 3 5 8 10 8 13 17 18 23 10 1 13 14 20 30 23 15 12 9 8 4 7 8 4 1 3 5 11 11 11 12 13 12 9 12 12 6 7 11 12 13 12 11 10 8 5 4 7 7 3 3 4 5 4 4 7 7 9 13 12 14 20 23 24 25 25 25 24
10 10 10 9 9 8 7 7 8 9 10 10 10 10 8 7 4 4 2 2 4 6 5 7 6 12 16 15 22 14 3 14 12 13 28 26 17 9 8 11 5 5 9 4 4 5 4 8 10 11 12 11 10 11 13 11 6 8 15 16 12 11 10 7 5 4 4 5 4 6 4 4 3 2 4 7 8 11 12 12 16 21 25 26 25 26 27 26
10 10 10 10 10 9 8 8 9 10 10 10 10 10 8 5 3 2 1 2 3 4 4 7 7 13 19 12 17 16 8 13 11 12 24 26 22 10 3 9 5 2 7 5 4 4 2 5 6 6 7 9 12 15 12 7 6 12 18 16 8 5 4 2 3 3 2 2 4 8 8 4 3 4 5 6 8 9 10 12 16 23 27 26 25 27 28 28
9 8 9 10 9 9 8 8 9 9 10 10 10 10 8 4 1 1 3 1 2 4 5 7 7 12 17 8 10 17 10 11 14 16 20 19 23 19 4 4 7 2 3 4 4 6 4 3 3 2 3 8 13 14 9 4 7 13 15 10 3 1 2 2 1 2 1 1 4 8 10 7 2 4 5 5 8 10 12 13 17 24 29 27 26 27 28 30
7 7 8 8 7 8 7 7 8 8 10 11 10 10 5 2 1 3 3 1 1 4 5 5 6 10 13 6 7 14 8 9 15 15 14 12 17 24 13 6 9 5 3 6 7 9 4 1 3 2 1 9 13 9 7 4 8 10 9 7 3 1 1 1 1 1 2 4 6 9 12 7 4 2 5 6 9 13 13 13 16 21 26 27 27 27 28 29
6 7 7 7 7 7 8 7 8 8 10 11 11 9 2 0 3 2 1 3 2 3 3 2 5 8 7 3 6 11 5 6 14 11 8 7 8 15 14 8 9 6 6 8 7 9 3 3 5 4 1 10 13 7 7 4 6 10 8 7 6 3 3 3 4 4 4 5 6 11 12 6 3 2 6 9 11 12 12 13 17 20 24 27 27 27 28 28
5 5 6 7 7 8 8 7 8 8 9 10 9 6 1 2 3 1 2 3 1 3 3 3 5 6 5 3 6 9 3 2 12 10 5 4 3 9 13 13 11 6 4 6 5 8 3 3 5 7 3 11 14 8 7 6 7 10 8 8 7 4 5 5 5 5 4 5 9 12 8 4 3 3 7 10 11 12 14 16 17 20 22 25 26 26 27 28
4 5 6 7 7 8 9 8 8 8 8 9 6 2 3 3 1 1 1 2 1 3 3 4 6 4 3 4 4 7 2 2 8 10 6 4 4 7 10 13 15 9 5 4 3 5 4 1 6 8 5 10 13 8 6 7 6 6 6 5 6 5 4 5 5 5 6 7 11 10 4 3 6 1 7 12 12 11 13 14 17 20 21 23 25 27 29 31
3 4 5 6 7 7 8 7 8 7 7 6 3 2 4 2 1 1 1 2 1 2 2 3 4 2 3 3 4 6 3 2 8 9 5 5 5 6 7 9 13 11 6 5 4 3 3 4 3 7 5 7 12 10 7 7 4 4 4 2 4 4 2 4 4 4 6 7 7 5 3 4 8 4 6 11 9 8 12 16 20 23 24 24 25 27 31 33
3 4 4 5 7 7 7 7 6 6 6 3 3 3 3 1 2 2 1 1 1 1 2 1 2 2 3 2 3 6 3 1 7 7 3 4 5 6 6 5 9 10 7 6 5 3 3 4 5 9 4 1 11 14 7 5 4 3 4 4 4 2 2 4 4 4 5 6 3 4 6 6 7 3 5 7 6 10 17 22 25 26 26 26 26 27 30 32
3 3 4 5 6 6 6 5 4 4 4 3 4 3 1 0 2 4 0 0 1 1 2 0 2 2 3 2 2 7 6 3 5 5 3 2 2 4 5 4 7 10 7 4 3 2 4 7 6 6 3 3 16 16 2 1 6 3 3 6 4 2 2 3 4 3 5 4 3 5 8 8 7 2 3 7 12 14 17 22 26 28 28 28 28 29 30 31
3 3 4 6 5 5 5 5 4 3 5 5 5 3 0 0 2 3 1 1 2 1 1 1 2 1 1 2 2 6 7 4 5 5 3 2 1 2 3 3 5 9 8 5 3 1 2 7 3 2 2 9 16 11 2 1 4 3 3 5 4 1 2 4 3 4 5 5 4 5 8 8 6 4 7 11 11 13 15 18 21 24 27 28 28 30 31 31
3 2 4 6 5 5 5 4 2 3 6 5 3 2 1 1 1 2 1 1 1 1 0 0 1 1 1 1 2 4 5 4 5 5 2 2 1 2 3 3 3 7 9 5 3 1 1 5 2 3 7 11 7 3 2 1 3 1 2 3 3 2 3 4 3 2 4 5 5 5 7 5 3 3 10 10 9 11 15 16 15 20 25 27 27 29 30 29
3 2 3 5 5 6 5 4 4 5 5 3 2 2 1 1 2 2 1 1 0 1 1 1 1 1 0 1 2 2 3 4 4 3 2 1 2 1 4 4 4 8 10 4 1 1 1 3 3 4 10 10 4 2 4 5 3 2 2 4 4 3 2 2 2 2 3 4 4 5 6 5 1 4 7 7 7 11 16 16 14 17 23 25 26 28 28 26
3 2 4 5 5 5 3 5 8 7 4 2 2 2 1 2 3 3 2 2 1 1 0 1 0 1 2 1 1 1 3 4 2 2 2 1 1 1 3 5 6 7 8 4 1 2 2 2 5 7 7 7 7 4 4 7 6 4 2 4 5 5 4 3 3 1 2 3 4 6 9 8 4 2 2 3 7 14 21 20 14 17 22 22 24 26 26 24
4 2 4 6 5 5 4 5 7 5 2 2 3 3 2 2 3 3 2 2 2 2 1 1 1 1 2 1 2 1 2 3 3 2 2 1 2 1 2 6 9 8 6 5 3 1 1 1 5 7 5 9 13 8 4 4 2 1 1 3 5 5 3 3 4 3 4 6 6 6 9 8 2 1 2 7 14 21 24 22 17 18 20 21 24 24 22 22
4 3 4 6 5 3 5 5 3 2 2 2 2 3 2 2 3 3 2 1 2 2 1 1 1 1 1 1 1 1 2 2 2 2 1 1 2 1 1 6 12 11 6 4 2 1 1 1 3 6 5 7 9 3 2 1 0 1 1 2 4 5 3 4 6 6 6 8 7 6 9 8 3 2 8 15 21 24 24 22 19 18 19 21 23 23 21 21
6 7 7 9 6 2 4 3 1 1 2 2 2 2 2 2 2 2 2 1 1 1 1 1 0 1 1 0 0 1 3 3 1 1 1 1 1 3 4 6 11 11 4 2 3 3 2 1 3 7 5 3 2 1 1 2 2 3 4 4 5 6 6 6 5 5 6 8 8 7 9 8 5 6 13 19 21 21 23 23 19 16 19 22 22 22 21 20
4 5 9 13 10 7 7 5 4 4 1 1 3 2 1 3 2 2 2 2 2 2 2 1 1 1 1 1 1 2 3 2 1 2 2 1 3 4 5 8 13 11 6 6 6 5 3 2 3 5 4 4 4 4 4 4 5 6 6 6 7 8 8 7 5 5 6 7 8 9 10 12 12 15 19 19 18 19 23 22 16 15 18 21 23 23 21 19
3 2 4 10 13 14 14 10 7 5 2 2 2 1 1 1 1 1 2 3 3 3 2 1 2 2 1 0 2 2 1 1 1 2 3 3 3 3 6 13 17 13 8 7 5 3 2 3 5 6 6 7 8 9 8 9 10 10 10 11 11 10 10 8 6 6 6 6 9 12 15 17 18 20 21 19 18 19 19 17 16 17 17 20 24 24 22 19
3 1 1 3 7 12 13 10 8 6 3 2 2 1 1 1 0 0 2 2 2 2 2 1 2 3 2 1 1 2 2 1 1 3 4 4 4 5 10 15 14 8 4 3 4 3 2 4 6 9 11 11 13 14 13 12 13 14 14 16 15 12 11 9 10 11 7 6 10 13 16 17 18 19 19 19 20 18 14 15 17 17 17 21 25 25 23 21
3 3 3 3 2 3 5 6 7 8 5 3 2 2 1 1 1 1 2 2 1 2 2 2 2 2 2 2 1 1 2 2 2 2 3 3 4 6 9 10 6 2 1 2 4 4 3 6 5 7 9 10 13 16 15 14 15 15 15 17 17 15 13 12 15 16 12 10 13 15 18 20 19 19 20 20 18 13 12 14 15 16 19 23 26 27 24 21
6 6 6 5 4 4 5 5 8 9 6 3 2 2 1 2 3 2 1 2 2 3 3 2 3 3 3 4 2 2 2 3 3 3 2 3 4 5 6 6 3 1 1 1 3 3 2 5 3 4 8 9 11 16 16 14 15 16 17 18 18 17 16 16 17 17 16 17 19 20 22 22 19 20 20 16 13 10 11 13 15 17 21 25 27 28 25 21
7 6 6 8 8 7 7 7 7 6 3 1 2 2 2 3 3 2 2 3 3 3 4 3 4 5 5 5 4 5 5 6 7 7 5 4 4 4 4 4 3 1 0 1 1 1 1 4 5 6 8 8 9 12 13 11 13 17 19 19 18 17 16 15 14 14 14 16 19 21 21 18 17 18 15 10 8 10 12 14 16 18 22 27 28 27 25 21
6 6 8 9 6 4 4 4 4 3 1 1 2 3 3 4 4 2 2 5 5 4 4 5 5 5 5 6 7 10 11 10 11 12 11 10 9 8 7 7 7 5 4 3 1 1 2 4 6 6 7 7 6 7 7 9 12 16 18 18 16 12 9 9 9 9 10 13 16 17 15 13 10 9 10 11 12 12 14 15 17 20 24 27 27 27 25 21
7 8 8 6 3 2 3 3 1 1 1 2 4 5 5 5 6 4 1 3 6 7 6 6 5 3 3 6 9 11 12 11 12 14 15 15 16 16 16 18 17 14 9 6 3 3 5 5 5 4 6 6 4 3 6 9 11 10 8 7 6 6 7 10 10 10 12 12 13 12 11 12 10 6 9 15 15 14 15 16 18 21 24 26 26 27 25 21
Wind_Direction
32 30 29 29 30 29 26 24 25 26 28 32 33 35 36 36 35 33 30 26 26 25 23 23 21 27 31 29 25 29 59 33 17 24 24 18 8 1 360 354 348 342 337 336 335 335 338 341 344 348 360 4 351 344 314 295 246 226 223 232 239 238 236 229 236 267 309 301 338 22 1 292 263 25 329 290 249 244 276 257 253 250 240 244 252 264 272 279
30 32 32 31 32 30 26 24 25 26 26 29 32 33 36 37 36 32 29 25 24 25 26 26 25 29 29 27 16 13 62 28 21 29 22 11 7 5 2 360 356 348 344 342 341 346 348 345 346 350 355 352 353 354 326 352 268 234 237 240 239 254 287 351 353 5 5 328 331 338 352 333 308 340 333 296 257 270 290 259 244 255 251 256 262 269 275 278
30 33 34 31 31 28 24 24 27 28 26 28 32 33 34 35 35 32 29 26 25 27 29 28 27 28 25 25 15 7 59 26 20 21 13 8 6 5 3 3 2 355 350 347 348 351 347 341 341 347 345 339 358 348 330 352 309 261 271 243 245 348 340 27 24 19 12 346 331 328 333 320 311 326 318 296 284 283 275 258 245 256 264 282 282 284 285 288
33 34 32 30 31 28 22 23 27 29 27 27 29 31 31 32 33 30 28 27 27 28 31 29 26 27 26 24 19 16 56 32 20 10 6 7 2 3 4 4 5 2 356 351 351 350 347 342 337 345 340 329 352 339 343 8 343 322 293 257 353 1 329 19 14 359 354 346 328 324 320 306 316 323 296 285 282 266 260 261 259 274 295 308 299 299 298 299
34 34 31 30 32 28 22 21 25 28 27 26 25 26 27 30 31 29 29 29 29 29 33 31 26 26 25 25 27 35 67 37 11 5 5 3 358 0 2 4 7 5 1 354 353 354 356 353 344 356 349 330 342 338 28 16 348 298 287 351 17 5 328 337 347 339 338 335 322 322 315 315 321 308 282 273 269 255 264 285 294 288 293 300 297 294 295 297
34 34 31 30 33 30 23 21 23 25 24 22 20 21 26 29 28 29 31 31 30 31 31 28 26 26 25 29 32 42 63 52 1 4 5 1 356 357 360 4 6 5 4 357 358 3 6 3 1 10 352 337 347 341 349 353 344 278 270 30 8 360 333 323 328 325 328 325 316 316 313 318 311 296 289 271 261 264 274 285 289 286 287 293 291 286 287 290
32 34 30 32 34 30 25 22 22 23 21 19 15 18 27 29 27 30 33 32 32 32 29 24 24 25 25 32 35 42 55 42 5 6 5 3 357 357 360 4 6 8 6 2 5 9 10 11 13 8 344 345 2 339 336 332 315 261 270 341 341 340 328 320 320 317 319 311 304 306 302 302 293 292 300 279 269 270 274 277 279 282 286 288 286 282 283 285
31 31 28 33 35 30 27 23 21 20 18 17 12 17 29 29 28 33 35 33 33 33 29 24 24 26 27 33 46 45 42 20 5 7 5 3 1 360 360 2 7 11 10 6 7 9 11 13 12 5 348 356 348 326 336 332 306 251 296 323 325 322 320 318 316 312 310 303 299 298 288 281 280 287 289 281 279 279 278 278 278 280 282 281 280 279 279 281
30 28 26 33 36 32 29 24 21 17 15 15 10 19 30 30 32 37 36 33 33 32 29 29 28 29 29 34 49 50 28 7 5 5 5 2 0 1 359 358 2 7 10 6 5 8 10 10 8 4 342 328 330 326 338 329 335 8 325 316 315 310 314 317 312 306 302 297 292 287 283 280 278 281 280 275 278 284 287 282 279 279 279 280 281 280 279 280
30 25 26 31 35 34 30 26 21 14 12 12 11 21 31 32 38 40 35 32 32 30 30 34 34 32 31 36 49 50 11 6 5 1 5 4 360 3 2 357 355 359 4 4 2 4 7 2 354 353 329 308 316 326 326 303 320 338 320 310 308 304 309 310 301 298 298 291 282 273 275 279 271 260 264 274 290 297 297 290 291 292 291 293 291 288 287 286
28 23 24 27 33 35 32 28 19 13 10 10 14 25 33 36 40 38 32 31 31 29 30 35 36 36 35 41 50 39 8 8 3 0 5 8 7 7 4 358 354 351 353 0 358 352 354 348 343 342 325 326 323 308 302 309 321 322 314 308 304 302 306 303 298 310 310 310 319 294 278 277 246 227 265 297 318 319 314 299 297 300 301 304 300 294 293 293
26 20 20 23 29 33 33 29 20 15 8 8 21 31 34 37 37 31 24 28 29 27 26 30 37 36 38 45 44 29 18 13 5 4 7 13 18 13 6 2 356 348 346 356 356 349 343 336 339 336 328 334 320 303 312 330 319 309 305 301 305 306 306 325 353 342 323 5 354 325 280 269 223 193 25 10 354 352 346 328 314 313 315 316 314 308 301 299
26 19 17 19 25 29 32 30 22 17 8 11 33 42 40 40 36 27 18 23 27 26 19 18 41 37 41 47 33 26 26 16 11 10 11 16 22 20 16 9 359 350 351 357 359 358 348 338 334 320 325 324 312 312 317 320 312 305 296 289 308 300 301 52 22 351 352 18 356 333 265 283 174 116 54 28 3 357 350 350 347 338 338 334 334 333 326 318
25 20 15 15 21 26 30 29 26 20 10 19 48 53 45 40 31 23 21 22 27 24 14 13 55 37 46 48 21 22 22 18 20 17 13 13 15 20 21 18 7 357 3 12 11 8 360 359 346 325 332 317 312 317 312 314 311 309 289 267 301 278 332 41 27 6 5 359 353 334 250 297 115 101 33 10 0 356 344 343 347 342 340 336 335 337 334 332
24 19 14 14 18 24 28 27 28 23 16 33 65 60 47 40 32 24 27 28 32 26 17 37 95 46 49 37 12 19 20 20 23 20 15 11 11 14 16 19 17 8 17 24 19 15 16 26 21 1 1 338 325 325 315 313 339 345 302 264 357 302 321 357 24 26 3 339 348 342 265 292 316 323 346 353 354 354 342 334 337 338 337 333 332 332 331 331
25 17 13 13 13 21 26 26 28 26 25 51 81 66 48 41 36 32 32 27 37 31 28 51 97 60 52 23 11 21 21 18 18 18 18 13 11 11 12 19 24 27 38 31 27 26 33 42 38 29 22 8 357 342 321 315 29 30 354 332 351 330 321 325 353 21 358 339 340 335 311 310 313 316 327 340 348 349 340 330 329 332 331 329 329 329 330 329
27 16 14 12 11 17 21 24 28 29 36 65 102 79 61 53 46 41 40 32 42 41 37 46 76 86 51 20 16 16 14 15 15 15 16 16 16 13 15 19 26 42 62 48 44 44 52 46 31 40 33 23 13 356 345 10 9 3 349 334 327 324 320 315 327 347 344 337 323 315 305 291 301 314 319 328 339 338 332 325 322 323 324 321 322 325 327 327
28 17 14 13 10 13 17 22 24 31 42 60 115 103 74 68 58 51 53 51 56 55 39 36 43 104 34 8 7 4 7 15 15 14 14 17 22 20 20 21 28 43 56 50 41 37 47 43 29 34 28 20 14 8 7 8 352 333 337 331 319 321 309 306 315 325 330 326 311 308 302 297 311 318 316 319 327 328 323 318 315 314 315 314 314 318 323 326
30 20 16 12 11 12 15 17 19 30 40 47 99 125 100 83 61 50 50 51 53 55 33 25 33 66 334 351 0 5 15 19 16 15 14 16 23 24 25 28 31 36 37 33 27 21 20 35 33 27 17 8 5 7 352 340 328 316 325 323 316 318 309 311 315 314 319 315 305 306 305 307 315 318 315 315 318 319 315 313 313 312 313 315 316 316 322 328
31 25 18 11 11 12 15 16 17 25 33 36 76 123 92 76 54 41 43 49 54 59 54 33 33 34 357 353 4 11 17 21 19 17 15 16 20 23 26 28 28 32 29 3 9 19 16 35 34 15 1 350 348 352 337 324 316 308 310 311 315 315 314 323 323 320 322 310 301 309 310 307 308 310 307 307 310 312 312 313 314 317 320 322 327 336 343 343
31 28 20 14 10 10 17 17 17 23 27 30 66 101 72 58 61 34 37 49 54 53 50 38 32 27 15 6 11 15 16 18 20 18 16 16 22 26 22 22 23 30 17 342 310 30 31 39 26 3 345 334 341 349 342 335 328 324 320 315 318 318 320 326 324 327 330 308 296 307 307 301 300 301 298 300 303 305 312 318 317 318 321 328 341 354 3 6
32 29 23 17 10 10 16 18 20 23 22 26 55 75 70 69 87 88 69 67 52 46 44 35 30 25 19 15 16 23 22 17 15 15 15 17 25 27 14 16 27 26 10 353 351 49 39 37 11 353 340 332 353 10 359 351 338 336 341 328 324 339 336 323 329 339 329 302 302 309 304 297 298 296 295 301 304 310 320 321 317 321 332 347 1 6 9 13
34 28 26 19 14 13 15 20 20 18 17 30 51 63 65 65 82 94 95 97 52 39 37 32 27 20 17 14 13 28 35 25 9 8 11 14 20 20 10 13 18 20 17 14 32 46 44 25 353 345 347 348 6 20 10 359 353 357 356 348 342 352 348 328 339 338 320 296 293 303 298 291 306 324 312 329 333 316 317 325 350 20 20 19 24 19 17 16
37 28 27 21 19 16 18 23 19 17 23 34 50 58 58 55 66 92 86 106 70 29 26 29 24 18 14 7 7 25 46 35 15 5 10 12 11 15 16 4 358 21 23 6 28 58 50 11 344 342 355 1 3 18 16 3 1 12 15 7 346 338 332 320 330 329 314 287 261 296 303 243 66 14 352 14 11 305 340 11 35 48 39 34 33 25 21 18
36 30 30 24 23 21 20 21 20 27 29 33 46 49 50 47 54 99 89 112 92 10 11 19 18 15 10 6 8 16 63 37 23 11 10 12 11 10 12 5 2 12 8 352 14 60 38 1 350 349 353 2 7 19 18 6 352 7 39 4 327 322 317 316 325 326 322 315 149 348 329 166 59 1 342 19 344 343 42 43 40 39 33 32 29 22 18 15
30 33 34 31 28 24 22 21 22 28 28 31 37 36 40 31 41 120 116 118 69 1 0 6 7 8 7 8 10 13 136 22 21 21 16 17 19 14 5 5 17 10 351 336 23 71 6 348 353 349 346 4 15 16 11 3 346 359 15 325 309 309 308 316 328 328 326 321 323 340 308 281 12 349 324 344 334 12 49 50 39 32 28 25 20 15 14 11
23 31 36 38 39 33 32 32 27 27 26 25 22 20 25 20 49 140 147 84 39 356 349 356 1 5 5 12 20 39 165 344 1 25 21 22 25 28 31 10 7 14 342 284 43 47 338 348 358 350 356 14 13 357 352 351 337 340 342 322 306 300 302 315 323 312 305 303 303 315 270 276 320 320 318 337 354 38 49 46 39 31 24 19 15 11 9 7
20 27 34 36 42 43 41 37 28 26 25 17 9 8 6 19 81 148 148 92 13 343 342 350 348 1 6 23 34 54 66 352 357 14 20 28 28 30 49 26 6 348 348 332 40 32 334 354 356 345 2 14 354 336 333 335 328 324 323 313 297 290 294 301 294 281 296 310 345 21 357 288 300 357 5 4 29 45 43 41 35 26 20 15 11 8 6 5
21 27 31 33 37 37 37 34 25 22 19 9 4 358 351 17 110 168 72 107 346 337 339 352 349 355 1 19 35 38 36 17 11 359 18 33 32 31 80 29 18 306 1 28 52 27 331 338 336 335 8 5 336 327 325 329 320 310 309 304 290 284 297 270 255 274 291 314 12 15 1 325 330 48 44 32 40 35 31 37 30 20 15 11 9 7 4 2
24 28 31 34 33 26 28 27 20 15 7 1 356 351 349 8 153 153 47 71 339 344 328 358 6 350 355 10 25 17 15 14 4 2 18 29 28 31 48 5 7 347 21 46 43 12 330 297 336 345 13 346 323 316 321 307 292 303 308 311 309 123 103 134 213 272 270 22 31 9 355 333 320 61 51 40 42 30 26 27 19 13 9 6 5 3 1 1
26 29 31 35 32 22 20 13 11 7 357 353 348 345 346 2 56 103 66 324 323 350 335 0 6 351 2 29 20 1 354 2 359 2 15 17 23 27 27 5 356 354 21 23 12 354 336 130 14 332 262 337 328 321 339 294 286 322 335 334 346 118 135 115 61 334 321 6 21 1 348 322 268 58 65 69 51 37 33 24 13 8 2 359 359 359 360 359
27 30 33 35 34 22 10 359 2 360 350 347 342 338 319 175 27 81 3 319 315 359 0 353 355 354 353 15 18 356 333 355 1 3 11 9 27 34 37 29 357 359 23 10 349 342 347 153 354 333 224 351 348 345 356 327 320 357 5 356 9 32 24 17 9 360 337 331 341 348 347 317 271 54 86 79 57 50 48 32 17 8 359 356 356 356 358 357
29 32 32 32 32 19 6 357 356 353 344 344 338 331 57 98 45 75 290 335 16 356 337 307 336 352 334 345 11 349 314 360 0 0 360 352 35 51 48 34 15 15 10 351 345 354 2 170 11 7 347 358 4 4 0 348 343 0 9 11 25 32 10 8 359 344 324 305 320 336 337 303 325 67 106 81 59 53 48 34 19 10 1 356 355 356 357 357
31 36 30 28 27 14 7 355 350 351 344 345 336 332 59 71 74 72 292 301 302 309 316 313 319 338 21 33 4 335 342 64 6 358 355 357 29 46 41 30 23 17 345 343 11 4 338 247 22 21 345 349 5 8 342 311 312 346 359 12 42 49 18 357 346 332 324 313 315 325 324 332 345 18 119 93 76 57 41 29 15 8 2 357 355 357 358 356
35 39 27 21 19 12 8 354 348 354 348 350 6 54 69 96 216 123 264 255 244 287 311 343 325 325 32 27 359 349 354 29 6 1 10 25 31 38 37 29 23 16 1 358 359 342 305 268 340 360 332 342 359 354 324 300 296 339 336 333 36 31 349 317 304 281 300 303 303 317 303 312 322 311 112 102 94 58 27 17 12 6 359 356 357 357 355 352
39 41 24 16 14 11 11 360 350 358 359 14 54 58 77 153 219 153 150 243 151 307 290 334 6 7 9 337 346 1 349 323 356 358 29 39 31 42 48 40 27 25 25 6 344 342 312 273 316 340 328 56 354 338 325 337 331 315 339 6 4 319 266 314 295 251 285 289 287 325 301 305 321 325 108 89 50 30 16 7 6 1 356 356 357 356 352 347
51 51 28 21 18 12 12 11 4 12 26 56 75 77 94 295 183 170 164 219 169 320 299 35 26 8 354 322 336 357 348 327 353 3 21 13 23 42 39 48 39 28 21 352 333 29 323 292 300 321 296 357 343 331 285 356 334 332 11 356 333 247 223 332 319 300 317 303 298 310 301 312 320 307 61 22 15 22 13 2 358 354 354 354 353 351 348 345
59 64 30 22 26 18 13 17 24 63 72 71 79 94 173 254 183 197 249 145 177 355 44 75 25 22 345 322 329 352 349 348 0 1 360 357 52 48 20 30 39 18 359 321 299 80 318 301 293 138 327 331 334 330 211 168 1 24 6 331 331 345 335 342 334 325 326 315 305 302 301 299 279 286 346 357 11 14 5 2 355 349 351 351 348 347 346 345
52 65 24 19 30 30 24 25 44 99 87 76 101 125 159 224 206 210 205 125 187 3 64 119 15 35 19 338 315 344 355 360 354 341 346 12 3 75 61 12 356 4 359 333 302 358 291 295 299 87 349 323 316 334 330 359 44 36 312 350 27 12 332 333 329 304 303 306 305 308 308 290 238 329 335 341 6 3 355 359 352 343 346 347 346 344 343 344
45 54 13 17 31 32 35 56 64 76 76 70 131 140 137 174 156 141 110 82 119 3 357 162 190 243 9 307 284 326 349 341 334 325 329 337 314 67 70 19 341 354 354 331 245 329 276 253 270 321 340 324 306 36 352 322 318 300 341 35 21 355 329 292 273 237 272 300 311 308 296 275 278 337 324 331 356 353 349 350 344 341 343 344 345 342 341 343
50 42 355 7 27 30 51 73 54 55 76 84 116 142 155 148 129 114 92 87 108 40 360 159 228 215 188 264 280 294 322 315 298 298 291 240 296 9 61 29 357 347 343 327 275 331 306 251 276 303 334 322 305 343 342 304 291 284 323 29 12 356 348 315 300 234 253 283 292 291 284 280 292 316 308 332 341 343 344 340 337 344 344 342 343 339 338 340
64 59 353 3 19 31 69 71 42 39 87 87 99 126 128 126 125 121 111 98 77 44 50 74 26 139 182 262 324 323 308 302 281 266 244 237 279 267 57 28 7 352 342 321 303 331 330 265 276 288 291 288 294 313 346 316 294 257 347 30 8 345 341 327 317 321 304 286 279 274 274 276 268 169 299 333 338 337 336 334 339 347 344 341 339 336 334 336
70 67 15 7 11 43 83 79 41 33 63 71 101 113 98 103 118 118 110 83 39 30 44 55 32 163 201 277 334 304 276 287 284 270 280 301 298 270 342 6 1 354 342 315 310 45 42 241 279 290 273 271 287 315 65 335 55 102 356 357 341 326 329 318 303 306 300 280 273 271 268 262 235 265 306 322 329 328 327 333 342 346 343 340 337 333 331 333
76 67 43 25 17 64 99 86 112 103 47 40 65 70 74 88 105 114 104 77 61 90 109 107 222 216 223 263 254 273 288 307 325 337 336 288 313 320 300 332 351 346 324 299 332 336 323 277 310 319 321 303 305 61 144 263 282 305 308 313 309 304 314 315 293 280 274 261 257 260 264 264 265 293 303 312 319 320 324 334 343 346 343 339 334 331 329 329
81 71 52 40 43 84 96 88 116 125 109 62 60 36 39 78 88 102 102 98 116 139 139 125 149 153 135 262 263 286 314 321 317 338 344 290 292 303 290 314 330 325 291 277 290 288 285 289 300 317 332 319 303 305 311 315 311 306 304 300 293 288 292 298 286 265 258 256 252 245 256 275 291 297 299 307 315 319 324 334 345 346 342 338 333 330 327 328
89 64 43 43 55 77 84 81 94 112 135 136 102 21 328 97 98 90 112 125 123 135 147 122 145 161 149 247 284 294 324 329 288 314 319 294 291 296 301 313 317 311 296 292 303 307 279 266 260 258 266 269 273 285 305 316 305 290 289 289 287 283 278 278 273 258 256 271 266 254 261 277 288 293 297 307 314 317 325 338 345 342 338 337 334 329 326 326
89 55 28 50 59 73 77 73 79 98 124 140 134 160 141 116 98 71 148 155 121 131 148 115 137 175 183 208 273 273 268 276 280 291 283 265 264 282 299 306 306 302 304 336 16 17 311 278 260 248 252 258 269 281 291 296 288 282 288 288 283 280 274 262 250 247 261 291 273 262 270 280 286 289 295 305 311 317 331 340 339 336 334 334 333 329 326 325
95 104 101 94 72 74 74 73 90 105 110 107 117 146 140 127 145 142 163 181 167 162 164 139 147 162 156 172 211 274 276 275 259 251 258 262 279 300 309 309 300 289 3 33 46 40 313 285 254 237 254 264 272 280 284 284 281 279 280 280 280 277 268 256 251 252 259 265 261 269 280 284 287 289 293 302 309 319 332 332 329 328 329 332 332 329 324 322
112 116 102 93 108 127 114 111 119 115 106 99 105 124 158 158 155 153 177 183 170 187 203 182 168 170 161 170 208 256 246 260 271 251 231 258 281 300 311 309 306 79 87 41 46 48 304 273 251 266 286 279 270 274 276 276 278 278 274 272 273 273 267 262 262 261 259 254 255 267 274 275 279 285 291 301 308 315 320 320 324 327 328 330 330 326 321 317
126 131 126 111 107 116 119 125 136 125 105 106 120 129 182 179 165 156 193 206 184 168 189 182 171 183 190 192 219 243 239 250 271 271 260 263 280 293 290 278 266 276 325 302 9 40 252 276 305 313 301 286 267 263 266 273 281 285 283 276 270 269 269 267 264 262 259 257 260 264 266 271 277 281 290 298 297 305 314 319 323 326 328 328 325 322 316 310
133 134 137 126 108 114 125 124 142 145 129 157 151 155 179 193 189 176 205 224 220 196 180 170 167 186 199 204 224 249 261 262 263 267 266 264 268 276 277 264 260 273 284 271 249 184 215 276 307 311 301 293 265 247 269 289 285 277 276 277 273 263 253 251 249 246 249 262 273 274 273 283 291 292 299 295 290 301 312 316 318 321 324 324 320 317 312 306
138 134 140 134 111 146 154 129 124 172 162 171 169 171 182 181 173 177 218 227 218 216 199 177 174 193 215 221 235 255 267 268 268 274 276 273 269 267 265 263 263 267 274 276 260 229 240 271 296 298 297 286 249 251 313 309 293 279 266 262 266 263 266 273 274 269 263 266 277 280 283 296 304 301 291 290 295 305 309 310 312 314 318 318 315 314 309 303